Location: Bush Observatory
(40.2653°N, 94.3194°W)
Time: 05:09:31
(UTC-05:00)

Vanguard 1 - Visible Passes

Search period start: 30 July 2015 00:00
Search period end: 09 August 2015 00:00
Orbit: 649 x 3836 km, 34.3° (Epoch: 28 July)

Date Brightness Start Highest point End Pass type
(mag) Time Alt. Az. Time Alt. Az. Time Alt. Az.
30 Jul 13.5 02:08:20 16° SE 02:12:47 18° SE 02:26:25 10° E visible
30 Jul 13.2 04:21:03 19° SSW 04:35:51 48° SSE 04:57:26 10° E visible
31 Jul 13.3 02:28:07 21° SSE 02:33:32 25° SE 02:50:25 10° E visible
31 Jul 13.1 04:40:49 17° SW 04:57:08 55° SSE 05:19:17 10° E visible
01 Aug 13.1 02:47:51 26° SSE 02:54:19 32° SE 03:13:24 10° E visible
01 Aug 13.1 05:00:34 15° SW 05:18:34 62° SSE 05:41:00 10° E visible
02 Aug 13.7 00:54:53 10° ESE 00:54:53 10° ESE 00:56:28 10° ESE visible
02 Aug 12.9 03:07:34 30° S 03:15:12 40° SE 03:35:51 10° E visible
02 Aug 13.1 05:20:17 11° WSW 05:40:07 67° SSE 06:02:40 10° E visible
03 Aug 13.4 01:14:34 16° SE 01:14:34 16° SE 01:25:42 10° E visible
03 Aug 12.8 03:27:16 31° SSW 03:36:12 47° SE 03:57:59 10° E visible
03 Aug 13.1 05:41:04 10° WSW 06:01:48 71° S 06:24:17 10° E visible
04 Aug 13.2 01:34:15 23° SE 01:34:52 23° SE 01:49:57 10° E visible
04 Aug 12.7 03:46:57 30° SSW 03:57:21 55° SSE 04:19:56 10° E visible
05 Aug 12.9 01:53:54 30° SE 01:55:30 30° SE 02:13:03 10° E visible
05 Aug 12.7 04:06:36 27° SW 04:18:41 62° SSE 04:41:47 10° E visible
06 Aug 12.6 02:13:33 36° SSE 02:16:13 38° SE 02:35:35 10° E visible
06 Aug 12.8 04:26:14 23° SW 04:40:09 67° SSE 05:03:34 10° E visible
07 Aug 13.5 00:20:29 13° ESE 00:20:29 13° ESE 00:24:30 10° E visible
07 Aug 12.4 02:33:10 41° S 02:37:06 46° SE 02:57:48 10° E visible
07 Aug 12.9 04:45:52 17° WSW 05:01:46 71° SSE 05:25:18 10° E visible
08 Aug 13.2 00:40:06 20° ESE 00:40:06 20° ESE 00:49:07 10° E visible
08 Aug 12.3 02:52:47 43° SSW 02:58:08 54° SSE 03:19:51 10° E visible
08 Aug 12.9 05:05:29 12° WSW 05:23:28 74° S 05:47:01 10° E visible
